GW5397 Weather Reports


Display with metric or nautical units.
time (UTC)temp
F
wind
direction
speed
MPH
gust
MPH
rain 1hr
in
rain 24hr
in
rain mn
in
humidity
%
barometer
mb
20260510225020 63 17 0.0 0.0 0.00 0.06 0.06 54 1026.6
20260510224516 64 18 0.0 1.0 0.00 0.06 0.06 53 1026.8
20260510224013 65 18 0.0 1.0 0.00 0.06 0.06 52 1027.0
20260510223511 64 18 0.0 1.0 0.00 0.06 0.06 50 1026.8
20260510223008 65 18 0.0 0.0 0.00 0.06 0.06 52 1026.8
20260510222506 65 19 1.0 3.0 0.00 0.06 0.06 51 1026.6
20260510222001 65 18 0.0 1.0 0.00 0.06 0.06 51 1026.8
20260510221457 64 18 0.0 1.0 0.00 0.06 0.06 53 1026.7
20260510220954 64 19 0.0 0.0 0.00 0.06 0.06 53 1027.1
20260510220449 65 19 0.0 1.0 0.00 0.06 0.06 51 1026.8
20260510215946 65 19 0.0 1.0 0.00 0.06 0.06 51 1027.1
20260510215444 65 18 1.0 2.0 0.00 0.06 0.06 51 1027.2
20260510214941 64 19 0.0 1.0 0.00 0.06 0.06 52 1027.3
20260510214438 64 18 0.0 1.0 0.00 0.06 0.06 52 1027.3
20260510213935 64 18 0.0 0.0 0.00 0.06 0.06 52 1027.3
20260510213431 63 18 2.0 6.0 0.00 0.06 0.06 53 1027.4
20260510212927 65 18 0.0 0.0 0.00 0.06 0.06 51 1027.4
20260510212425 64 18 0.0 1.0 0.00 0.06 0.06 53 1027.4
20260510211921 64 18 0.0 0.0 0.00 0.06 0.06 54 1027.6
20260510211419 64 18 0.0 0.0 0.00 0.06 0.06 55 1027.4
20260510210919 64 18 0.0 0.0 0.00 0.06 0.06 51 1027.9
20260510210414 64 18 0.0 0.0 0.00 0.06 0.06 55 1027.9
20260510205913 64 18 0.0 0.0 0.00 0.06 0.06 54 1027.9
20260510205409 65 18 0.0 1.0 0.00 0.06 0.06 53 1028.3
20260510204905 65 18 0.0 0.0 0.00 0.06 0.06 54 1027.8
20260510204402 63 18 0.0 1.0 0.00 0.06 0.06 56 1028.2
20260510203858 64 18 0.0 0.0 0.00 0.06 0.06 56 1027.9
20260510203356 63 18 0.0 1.0 0.00 0.06 0.06 56 1028.2
20260510202850 63 18 0.0 0.0 0.00 0.06 0.06 57 1028.0
20260510202346 64 18 0.0 0.0 0.00 0.06 0.06 56 1028.2
20260510201843 63 18 0.0 1.0 0.00 0.06 0.06 58 1028.0
20260510201340 64 18 0.0 1.0 0.00 0.06 0.06 57 1028.2
20260510200837 61 18 0.0 0.0 0.00 0.06 0.06 59 1028.2
20260510200336 63 17 0.0 1.0 0.00 0.06 0.06 60 1028.2
20260510195830 63 18 0.0 1.0 0.00 0.06 0.06 58 1028.3
20260510195327 62 18 0.0 0.0 0.00 0.06 0.06 59 1028.4
20260510194823 63 17 1.0 2.0 0.00 0.06 0.06 59 1028.4
20260510194319 61 17 0.0 0.0 0.00 0.06 0.06 61 1028.4
20260510193814 61 17 0.0 0.0 0.00 0.06 0.06 61 1028.2
20260510193310 59 17 0.0 0.0 0.00 0.06 0.06 62 1028.3
20260510192806 59 16 0.0 0.0 0.00 0.06 0.06 65 1028.2
20260510192301 60 16 0.0 0.0 0.00 0.06 0.06 62 1028.2
20260510191757 60 16 0.0 0.0 0.00 0.06 0.06 61 1028.4
20260510191253 59 17 1.0 1.0 0.00 0.06 0.06 62 1028.3
20260510190752 59 16 0.0 0.0 0.00 0.06 0.06 62 1028.3
20260510190248 59 16 0.0 0.0 0.00 0.06 0.06 62 1028.3
20260510185744 59 16 0.0 1.0 0.00 0.06 0.06 64 1028.6
20260510185243 58 16 0.0 0.0 0.00 0.06 0.06 63 1028.3
20260510184740 61 16 1.0 2.0 0.00 0.06 0.06 60 1028.3
20260510184237 60 17 3.0 5.0 0.00 0.06 0.06 62 1028.5
20260510183736 60 16 0.0 0.0 0.00 0.06 0.06 63 1028.8
20260510183232 61 17 0.0 1.0 0.00 0.06 0.06 61 1028.5
20260510182729 60 17 0.0 0.0 0.00 0.06 0.06 61 1028.6
20260510182224 58 16 0.0 0.0 0.00 0.06 0.06 64 1028.5
20260510181721 59 16 0.0 0.0 0.00 0.06 0.06 64 1028.5
20260510181218 61 17 0.0 1.0 0.00 0.06 0.06 63 1028.6
20260510180714 59 17 0.0 0.0 0.00 0.06 0.06 64 1028.6
20260510180212 59 17 0.0 1.0 0.00 0.06 0.06 65 1028.9
20260510175708 58 16 0.0 0.0 0.00 0.06 0.06 66 1029.1
20260510175204 57 16 0.0 1.0 0.00 0.06 0.06 68 1029.0
20260510174701 57 16 0.0 0.0 0.00 0.06 0.06 67 1029.0
20260510174159 57 16 1.0 3.0 0.00 0.06 0.06 68 1028.9
20260510173654 58 16 0.0 0.0 0.00 0.06 0.06 68 1028.8
20260510173151 58 16 0.0 0.0 0.00 0.06 0.06 66 1029.0
20260510172646 58 16 0.0 0.0 0.00 0.06 0.06 67 1028.9
20260510172143 58 17 0.0 0.0 0.00 0.06 0.06 63 1028.9
20260510171639 57 16 0.0 0.0 0.00 0.06 0.06 67 1028.8
20260510171137 57 16 0.0 0.0 0.00 0.06 0.06 68 1029.3
20260510170633 57 16 0.0 0.0 0.00 0.06 0.06 65 1028.9
20260510170130 55 16 0.0 0.0 0.00 0.06 0.06 68 1028.9
20260510165625 55 16 0.0 0.0 0.00 0.06 0.06 68 1028.9
20260510165121 54 16 0.0 0.0 0.00 0.06 0.06 72 1028.8
20260510164619 56 16 0.0 0.0 0.00 0.06 0.06 69 1029.0
20260510164116 55 16 0.0 0.0 0.00 0.06 0.06 70 1029.0
20260510163611 55 16 0.0 1.0 0.00 0.06 0.06 71 1028.8
20260510163108 55 16 0.0 1.0 0.00 0.06 0.06 69 1028.9
20260510162608 55 16 0.0 0.0 0.00 0.06 0.06 70 1028.9
20260510162104 55 16 0.0 0.0 0.00 0.06 0.06 70 1028.6
20260510161600 55 16 0.0 0.0 0.00 0.06 0.06 70 1028.6
20260510161058 54 16 0.0 0.0 0.00 0.06 0.06 72 1029.0
20260510160555 52 16 0.0 0.0 0.00 0.06 0.06 73 1028.9
20260510160054 53 16 0.0 0.0 0.00 0.06 0.06 74 1028.8
20260510155550 52 16 0.0 0.0 0.00 0.06 0.06 74 1029.0
20260510155047 53 16 0.0 0.0 0.00 0.06 0.06 75 1029.0
20260510154542 53 15 0.0 0.0 0.00 0.06 0.06 74 1028.9
20260510154038 53 15 0.0 0.0 0.00 0.06 0.06 75 1028.9
20260510153533 52 15 0.0 0.0 0.00 0.06 0.06 80 1028.6
20260510153031 50 15 0.0 0.0 0.00 0.06 0.06 84 1028.9
20260510152527 49 15 0.0 0.0 0.00 0.06 0.06 87 1029.1
20260510152024 48 15 0.0 0.0 0.00 0.06 0.06 87 1029.3
20260510151520 47 15 0.0 0.0 0.00 0.06 0.06 90 1029.3
20260510151018 47 15 0.0 0.0 0.00 0.06 0.06 90 1029.1
20260510150513 46 14 0.0 0.0 0.00 0.06 0.06 90 1029.3
20260510150009 46 14 0.0 0.0 0.00 0.06 0.06 90 1029.4
20260510145506 46 14 0.0 0.0 0.00 0.06 0.06 90 1029.3
20260510145002 46 14 0.0 0.0 0.00 0.06 0.06 90 1029.3
20260510144459 46 14 0.0 0.0 0.00 0.06 0.06 91 1029.1
20260510143954 45 14 0.0 0.0 0.00 0.06 0.06 92 1029.5
20260510143451 45 14 0.0 0.0 0.00 0.06 0.06 93 1029.3
20260510142947 45 14 0.0 0.0 0.00 0.06 0.06 94 1029.0
20260510142444 45 14 0.0 0.0 0.00 0.06 0.06 94 1028.9
20260510141941 45 14 0.0 0.0 0.00 0.06 0.06 95 1028.9
20260510141437 44 14 0.0 0.0 0.00 0.06 0.06 94 1028.9
20260510140935 44 14 0.0 0.0 0.00 0.06 0.06 94 1028.8
20260510140431 44 14 0.0 0.0 0.00 0.06 0.06 94 1029.0
20260510135930 44 14 0.0 0.0 0.00 0.06 0.06 95 1029.1
20260510135426 44 14 0.0 0.0 0.00 0.06 0.06 96 1028.9
20260510134924 44 14 0.0 0.0 0.00 0.06 0.06 96 1029.1
20260510134420 43 14 0.0 0.0 0.00 0.06 0.06 97 1029.1
20260510133916 43 14 0.0 0.0 0.00 0.06 0.06 97 1028.8
20260510133413 43 14 0.0 0.0 0.00 0.06 0.06 97 1028.8
20260510132908 43 14 0.0 0.0 0.00 0.06 0.06 97 1028.8
20260510132407 43 14 0.0 0.0 0.00 0.06 0.06 97 1028.9
20260510131903 44 14 0.0 0.0 0.00 0.06 0.06 97 1028.9
20260510131401 43 14 0.0 0.0 0.00 0.06 0.06 98 1028.5
20260510130857 43 14 0.0 0.0 0.00 0.06 0.06 98 1028.4
20260510130354 43 14 0.0 0.0 0.00 0.06 0.06 98 1028.4
20260510125851 43 14 0.0 0.0 0.00 0.06 0.06 98 1028.3
20260510125347 43 14 0.0 0.0 0.00 0.06 0.06 98 1028.4
20260510124844 43 14 0.0 0.0 0.00 0.06 0.06 98 1027.9
20260510124340 43 14 0.0 0.0 0.00 0.06 0.06 98 1027.9
20260510123836 42 14 0.0 0.0 0.00 0.06 0.06 98 1027.8
20260510123332 42 14 0.0 0.0 0.00 0.06 0.06 98 1027.9
20260510122829 42 14 0.0 0.0 0.00 0.06 0.06 98 1028.0
20260510122324 42 14 0.0 0.0 0.00 0.06 0.06 98 1027.4
20260510121821 42 14 0.0 0.0 0.00 0.06 0.06 98 1027.8
20260510121319 41 14 0.0 0.0 0.00 0.06 0.06 98 1027.4
20260510120816 41 15 0.0 0.0 0.00 0.06 0.06 98 1027.6
20260510120312 41 15 0.0 0.0 0.00 0.06 0.06 98 1027.4
20260510115808 41 15 0.0 0.0 0.00 0.06 0.06 98 1027.3
20260510115307 42 15 0.0 0.0 0.00 0.06 0.06 98 1027.4
20260510114801 42 15 0.0 0.0 0.00 0.06 0.06 98 1027.7
20260510114259 42 15 0.0 0.0 0.00 0.06 0.06 98 1027.3
20260510113759 43 15 0.0 0.0 0.00 0.06 0.06 98 1027.3
20260510113257 43 15 0.0 0.0 0.00 0.06 0.06 97 1027.3
20260510112753 44 15 0.0 0.0 0.00 0.06 0.06 98 1027.4
20260510112250 44 15 0.0 0.0 0.00 0.06 0.06 98 1027.6
20260510111745 44 15 0.0 0.0 0.00 0.06 0.06 98 1027.7
20260510111243 44 15 0.0 0.0 0.00 0.06 0.06 98 1027.7
20260510110742 44 15 0.0 0.0 0.00 0.06 0.06 98 1027.8
20260510110240 43 14 0.0 0.0 0.00 0.06 0.06 98 1027.6
20260510105740 43 14 0.0 0.0 0.00 0.06 0.06 98 1027.7
20260510105235 43 14 0.0 0.0 0.00 0.06 0.06 98 1027.7
20260510104732 43 14 0.0 0.0 0.00 0.06 0.06 98 1027.7
20260510104229 43 14 0.0 0.0 0.00 0.06 0.06 98 1027.8
20260510103725 43 14 0.0 0.0 0.00 0.06 0.06 98 1027.8
20260510103223 43 14 0.0 0.0 0.00 0.06 0.06 97 1027.7
20260510102722 43 14 0.0 0.0 0.00 0.06 0.06 98 1027.7
20260510102218 44 14 0.0 0.0 0.00 0.06 0.06 98 1027.6
20260510101716 44 14 0.0 0.0 0.00 0.06 0.06 98 1027.6
20260510101214 44 14 0.0 0.0 0.00 0.06 0.06 98 1027.6
20260510100710 44 14 0.0 0.0 0.00 0.06 0.06 98 1027.6
20260510100208 44 14 0.0 0.0 0.00 0.06 0.06 97 1027.4
20260510095703 44 14 0.0 0.0 0.00 0.06 0.06 97 1027.3
20260510095158 44 14 0.0 0.0 0.00 0.06 0.06 97 1027.2
20260510094657 44 14 0.0 0.0 0.00 0.06 0.06 97 1027.3
20260510094153 44 14 0.0 0.0 0.00 0.06 0.06 97 1027.3
20260510093649 44 14 0.0 0.0 0.00 0.06 0.06 97 1027.3
20260510093147 44 14 0.0 0.0 0.00 0.06 0.06 97 1027.7
20260510092643 44 14 0.0 0.0 0.00 0.06 0.06 97 1027.6
20260510092138 44 14 0.0 0.0 0.07 0.06 0.06 96 1027.2
20260510091635 44 14 0.0 0.0 0.07 0.06 0.06 96 1027.6
20260510091131 44 14 0.0 0.0 0.00 0.05 0.05 96 1027.3
20260510090628 44 14 0.0 0.0 0.00 0.05 0.05 95 1027.1
20260510090125 44 14 0.0 0.0 0.05 0.05 0.05 95 1027.3
20260510085619 44 14 0.0 0.0 0.05 0.05 0.05 94 1027.2
20260510085115 44 14 0.0 0.0 0.00 0.04 0.04 94 1027.0
20260510084612 44 14 0.0 0.0 0.00 0.04 0.04 95 1027.1
20260510084108 45 14 0.0 0.0 0.07 0.04 0.04 94 1027.2
20260510083605 45 14 0.0 0.0 0.07 0.04 0.04 92 1026.8
20260510083101 45 14 0.0 0.0 0.00 0.03 0.03 93 1026.8
20260510082558 45 14 0.0 0.0 0.07 0.03 0.03 92 1027.1
20260510082053 45 14 0.0 0.0 0.00 0.02 0.02 92 1026.7
20260510081548 45 14 0.0 0.0 0.00 0.02 0.02 91 1026.7
20260510081044 46 14 0.0 0.0 0.05 0.02 0.02 89 1027.0
20260510080544 46 14 0.0 0.0 0.05 0.02 0.02 88 1026.5
20260510080041 46 14 0.0 0.0 0.00 0.01 0.01 87 1027.0
20260510075538 46 14 0.0 0.0 0.00 0.01 0.01 86 1026.7
20260510075035 46 14 0.0 0.0 0.00 0.01 0.01 87 1027.0
20260510074533 46 14 0.0 0.0 0.00 0.01 0.01 85 1026.8
20260510074028 46 14 0.0 0.0 0.00 0.01 0.01 85 1026.8
20260510073524 46 14 0.0 0.0 0.00 0.01 0.01 85 1026.8
20260510073021 46 14 0.0 0.0 0.00 0.01 0.01 86 1026.6
20260510072518 46 14 0.0 0.0 0.00 0.01 0.01 86 1027.0
20260510072013 46 14 0.0 0.0 0.00 0.01 0.01 85 1026.8
20260510071509 46 14 0.0 0.0 0.00 0.01 0.01 85 1026.6
20260510071008 46 14 0.0 0.0 0.00 0.01 0.01 85 1026.8
20260510070505 46 14 0.0 1.0 0.00 0.01 0.01 86 1027.0
20260510070000 46 14 0.0 0.0 0.00 0.01 0.01 86 1026.7
20260510065458 46 14 0.0 0.0 0.00 0.01 0.01 87 1026.8
20260510064954 46 14 0.0 0.0 0.00 0.01 0.01 88 1026.6
20260510064451 46 14 0.0 0.0 0.00 0.01 0.01 89 1026.5
20260510063947 46 14 0.0 0.0 0.00 0.01 0.01 87 1026.5
20260510063444 46 14 0.0 0.0 0.00 0.01 0.01 87 1026.5
20260510062943 46 14 1.0 1.0 0.00 0.01 0.01 85 1026.5
20260510062442 46 14 0.0 0.0 0.07 0.01 0.01 86 1026.3
20260510061938 47 14 2.0 3.0 0.07 0.01 0.01 84 1026.2
20260510061435 47 14 0.0 1.0 0.00 0.00 0.00 84 1026.5
20260510060931 47 14 1.0 2.0 0.00 0.00 0.00 83 1026.3
20260510060428 47 14 0.0 1.0 0.00 0.00 0.00 81 1026.2
20260510055924 47 14 5.0 7.0 0.00 0.00 0.00 80 1025.9
20260510055420 48 14 1.0 2.0 0.00 0.00 0.00 80 1026.2
20260510054918 48 14 1.0 2.0 0.00 0.00 0.00 77 1026.0
20260510054414 48 14 1.0 1.0 0.00 0.00 0.00 75 1026.0
20260510053909 49 14 3.0 5.0 0.00 0.00 0.00 74 1026.1
20260510053405 49 14 0.0 0.0 0.00 0.00 0.00 73 1025.9
20260510052901 49 14 1.0 2.0 0.00 0.00 0.00 73 1026.0
20260510052357 49 14 0.0 1.0 0.00 0.00 0.00 73 1025.9
20260510051853 49 14 1.0 3.0 0.00 0.00 0.00 74 1025.5
20260510051350 49 14 3.0 3.0 0.00 0.00 0.00 72 1025.7
20260510050846 49 14 2.0 6.0 0.00 0.00 0.00 72 1025.7
20260510050343 49 14 5.0 8.0 0.00 0.00 0.00 71 1025.9
20260510045840 50 15 3.0 5.0 0.00 0.00 0.00 71 1025.6
20260510045337 50 14 4.0 6.0 0.00 0.00 0.00 71 1025.6
20260510044834 50 14 2.0 2.0 0.00 0.00 0.00 71 1025.9
20260510044331 50 14 0.0 1.0 0.00 0.00 0.00 71 1025.9
20260510043828 50 14 7.0 8.0 0.00 0.00 0.00 70 1025.9
20260510043323 50 14 0.0 1.0 0.00 0.00 0.00 69 1025.5
20260510042821 50 14 3.0 7.0 0.00 0.00 0.00 69 1025.6
20260510042317 51 14 1.0 2.0 0.00 0.00 0.00 69 1025.5
20260510041814 51 14 0.0 2.0 0.00 0.00 0.00 68 1025.7
20260510041311 51 15 4.0 7.0 0.00 0.00 0.00 67 1025.5
20260510040808 51 15 4.0 6.0 0.00 0.00 0.00 67 1025.5
20260510040305 52 14 7.0 8.0 0.00 0.00 0.00 65 1025.5
20260510035800 52 15 1.0 2.0 0.00 0.00 0.00 66 1025.3
20260510035256 52 15 3.0 8.0 0.00 0.00 0.00 65 1025.1
20260510034752 53 14 2.0 3.0 0.00 0.00 0.00 63 1024.7
20260510034250 53 14 5.0 7.0 0.00 0.00 0.00 61 1024.5
20260510033746 53 13 5.0 8.0 0.00 0.00 0.00 62 1024.0
20260510033244 54 12 3.0 3.0 0.00 0.00 0.00 60 1023.8
20260510032740 53 12 4.0 9.0 0.00 0.00 0.00 60 1023.9
20260510032236 53 14 2.0 9.0 0.00 0.00 0.00 61 1023.3
20260510031732 53 17 1.0 3.0 0.00 0.00 0.00 60 1023.0
20260510031227 54 17 0.0 1.0 0.00 0.00 0.00 60 1022.8
20260510030727 55 17 6.0 9.0 0.00 0.00 0.00 58 1022.4
20260510030225 55 18 0.0 1.0 0.00 0.00 0.00 57 1022.2
20260510025722 56 18 5.0 9.0 0.00 0.00 0.00 55 1021.7
20260510025219 57 17 0.0 1.0 0.00 0.00 0.00 52 1021.3
20260510024716 59 16 6.0 10.0 0.00 0.00 0.00 47 1020.9
20260510024212 59 17 0.0 1.0 0.00 0.00 0.00 41 1020.4
20260510023708 60 17 0.0 0.0 0.00 0.00 0.00 41 1019.9
20260510023205 60 17 0.0 0.0 0.00 0.00 0.00 39 1019.9
20260510022701 60 17 0.0 0.0 0.00 0.00 0.00 39 1019.6
20260510022156 60 17 0.0 0.0 0.00 0.00 0.00 40 1019.6
20260510021651 61 17 0.0 0.0 0.00 0.00 0.00 40 1019.3
20260510021149 61 17 0.0 0.0 0.00 0.00 0.00 39 1019.2
20260510020643 61 17 0.0 0.0 0.00 0.00 0.00 38 1018.7
20260510020139 61 17 0.0 0.0 0.00 0.00 0.00 39 1018.6
20260510015635 61 17 0.0 0.0 0.00 0.00 0.00 39 1018.6
20260510015132 61 17 0.0 0.0 0.00 0.00 0.00 41 1018.4
20260510014627 62 17 0.0 0.0 0.00 0.00 0.00 38 1018.2
20260510014125 61 17 0.0 0.0 0.00 0.00 0.00 40 1018.4
20260510013625 62 17 0.0 0.0 0.00 0.00 0.00 39 1018.4
20260510013121 62 17 0.0 0.0 0.00 0.00 0.00 38 1018.4
20260510012620 62 17 0.0 0.0 0.00 0.00 0.00 36 1018.4
20260510012117 62 17 0.0 0.0 0.00 0.00 0.00 37 1018.4
20260510011616 63 17 0.0 0.0 0.00 0.00 0.00 37 1018.4
20260510011112 63 17 0.0 0.0 0.00 0.00 0.00 36 1018.2
20260510010609 64 17 0.0 0.0 0.00 0.00 0.00 37 1018.4
20260510010106 64 17 0.0 0.0 0.00 0.00 0.00 36 1018.2
20260510005601 64 17 0.0 0.0 0.00 0.00 0.00 36 1018.1
20260510005059 64 17 0.0 0.0 0.00 0.00 0.00 35 1017.9
20260510004557 64 17 0.0 0.0 0.00 0.00 0.00 35 1017.7
20260510004055 65 17 0.0 0.0 0.00 0.00 0.00 35 1017.6
20260510003551 65 17 0.0 0.0 0.00 0.00 0.00 35 1018.0
20260510003047 65 17 0.0 0.0 0.00 0.00 0.00 36 1017.9
20260510002542 65 17 0.0 0.0 0.00 0.00 0.00 35 1017.9
20260510002040 66 17 0.0 0.0 0.00 0.00 0.00 35 1017.6
20260510001537 66 17 0.0 0.0 0.00 0.00 0.00 34 1017.5
20260510001035 66 17 0.0 0.0 0.00 0.00 0.00 33 1017.9
20260510000530 66 17 0.0 0.0 0.00 0.00 0.00 32 1017.6
20260510000027 67 17 0.0 0.0 0.00 0.00 0.00 33 1017.9
20260509235524 67 17 0.0 0.0 0.00 0.00 0.00 32 1017.9
20260509235021 67 17 0.0 0.0 0.00 0.00 0.00 32 1017.6
20260509234517 67 17 0.0 0.0 0.00 0.00 0.00 29 1017.7
20260509234015 67 17 0.0 0.0 0.00 0.00 0.00 29 1017.6
20260509233512 68 18 0.0 0.0 0.00 0.00 0.00 31 1017.9
20260509233009 68 17 0.0 0.0 0.00 0.00 0.00 32 1017.7
20260509232506 68 18 0.0 0.0 0.00 0.00 0.00 30 1018.0
20260509232002 68 18 0.0 0.0 0.00 0.00 0.00 30 1017.9
20260509231459 68 18 0.0 0.0 0.00 0.00 0.00 30 1018.0
20260509230956 68 18 1.0 1.0 0.00 0.00 0.00 29 1017.7
20260509230453 68 18 1.0 3.0 0.00 0.00 0.00 29 1017.6
20260509225949 68 18 0.0 0.0 0.00 0.00 0.00 29 1017.7